GW5236 Weather Reports


Display with metric or nautical units.
time (UTC)temp
F
wind
direction
speed
MPH
gust
MPH
rain 1hr
in
rain 24hr
in
rain mn
in
humidity
%
barometer
mb
20260505125008 60 229 3.0 9.0 0.00 0.00 0.00 83 1007.8
20260505124522 59 215 3.0 9.0 0.00 0.00 0.00 83 1007.9
20260505124009 59 210 4.0 8.0 0.00 0.00 0.00 83 1007.9
20260505123508 58 194 3.0 7.0 0.00 0.00 0.00 84 1007.8
20260505123022 58 161 3.0 7.0 0.00 0.00 0.00 84 1007.8
20260505122509 58 165 2.0 5.0 0.00 0.00 0.00 84 1007.8
20260505122003 58 175 2.0 7.0 0.00 0.00 0.00 83 1007.6
20260505121511 58 198 2.0 11.0 0.00 0.00 0.00 83 1007.7
20260505121008 58 218 4.0 10.0 0.00 0.00 0.00 83 1007.3
20260505120504 58 173 4.0 9.0 0.00 0.00 0.00 83 1007.3
20260505120017 58 196 2.0 7.0 0.00 0.00 0.00 84 1007.3
20260505115507 58 277 2.0 11.0 0.00 0.00 0.00 84 1007.2
20260505115010 57 277 3.0 12.0 0.00 0.00 0.00 84 1006.9
20260505114519 57 250 4.0 12.0 0.00 0.00 0.00 84 1006.6
20260505114008 57 168 7.0 17.0 0.00 0.00 0.00 84 1006.0
20260505113507 57 182 6.0 17.0 0.00 0.00 0.00 84 1005.6
20260505113021 57 166 7.0 17.0 0.00 0.00 0.00 84 1005.2
20260505112514 58 191 7.0 17.0 0.00 0.00 0.00 84 1005.0
20260505112011 58 254 7.0 21.0 0.00 0.00 0.00 83 1005.1
20260505111534 58 194 7.0 21.0 0.00 0.00 0.00 83 1005.1
20260505111003 58 198 8.0 21.0 0.00 0.00 0.00 83 1005.2
20260505110504 57 181 11.0 21.0 0.00 0.00 0.00 84 1005.2
20260505102008 57 202 4.0 10.0 0.00 0.00 0.00 84 1006.6
20260505101526 57 185 4.0 10.0 0.00 0.00 0.00 83 1006.6
20260505101010 57 188 3.0 7.0 0.00 0.00 0.00 82 1006.8
20260505100509 58 179 3.0 9.0 0.00 0.00 0.00 81 1006.9
20260505100004 58 150 3.0 9.0 0.00 0.00 0.00 81 1007.3
20260505095502 59 164 2.0 9.0 0.00 0.00 0.00 79 1007.2
20260505095004 59 317 3.0 9.0 0.00 0.00 0.00 78 1007.3
20260505094504 59 222 4.0 10.0 0.00 0.00 0.00 76 1007.1
20260505094003 59 171 5.0 10.0 0.00 0.00 0.00 76 1007.0
20260505093503 59 161 2.0 7.0 0.00 0.00 0.00 77 1007.2
20260505093004 60 321 2.0 7.0 0.00 0.00 0.00 76 1007.1
20260505092502 60 338 2.0 7.0 0.00 0.00 0.00 76 1006.9
20260505092004 60 290 2.0 9.0 0.00 0.00 0.00 76 1006.7
20260505091504 60 266 2.0 9.0 0.00 0.00 0.00 76 1006.8
20260505090503 60 288 3.0 10.0 0.00 0.00 0.00 75 1006.8
20260505085504 60 279 3.0 11.0 0.00 0.00 0.00 75 1006.7
20260505085004 61 293 5.0 11.0 0.00 0.00 0.00 75 1006.7
20260505084505 61 272 3.0 11.0 0.00 0.00 0.00 74 1006.8
20260505084003 61 244 3.0 14.0 0.00 0.00 0.00 74 1006.6
20260505083503 61 154 5.0 14.0 0.00 0.00 0.00 73 1006.7
20260505081507 64 294 2.0 8.0 0.00 0.00 0.00 66 1006.3
20260505075502 64 196 4.0 11.0 0.00 0.00 0.00 66 1005.9
20260505075004 63 189 3.0 7.0 0.00 0.00 0.00 67 1005.8
20260505074508 63 220 3.0 9.0 0.00 0.00 0.00 67 1005.7
20260505074004 63 142 3.0 9.0 0.00 0.00 0.00 67 1005.7
20260505073504 63 217 3.0 15.0 0.00 0.00 0.00 68 1005.6
20260505073010 63 280 3.0 15.0 0.00 0.00 0.00 69 1005.7
20260505072505 62 215 5.0 11.0 0.00 0.00 0.00 70 1005.7
20260505072003 62 148 2.0 7.0 0.00 0.00 0.00 70 1005.5
20260505070006 62 192 3.0 9.0 0.00 0.00 0.00 70 1005.3
20260505065002 62 196 4.0 10.0 0.00 0.00 0.00 70 1005.4
20260505064514 62 142 4.0 10.0 0.00 0.00 0.00 70 1005.3
20260505064002 62 175 4.0 10.0 0.00 0.00 0.00 70 1005.2
20260505063502 62 140 3.0 9.0 0.00 0.00 0.00 70 1005.2
20260505062502 62 167 2.0 9.0 0.00 0.00 0.00 69 1004.9
20260505062004 62 165 2.0 10.0 0.00 0.00 0.00 69 1005.0
20260505061511 63 188 3.0 10.0 0.00 0.00 0.00 69 1005.0
20260505061008 63 182 4.0 7.0 0.00 0.00 0.00 69 1004.9
20260505060504 63 194 3.0 9.0 0.00 0.00 0.00 68 1004.9
20260505055501 63 170 4.0 15.0 0.00 0.00 0.00 67 1004.9
20260505054002 64 158 4.0 10.0 0.00 0.00 0.00 66 1005.0
20260505053009 64 202 5.0 11.0 0.00 0.00 0.00 66 1005.1
20260505052506 64 178 4.0 11.0 0.00 0.00 0.00 66 1005.1
20260505052004 64 187 5.0 11.0 0.00 0.00 0.00 66 1005.1
20260505051523 64 195 5.0 10.0 0.00 0.00 0.00 66 1005.1
20260505051008 64 202 4.0 12.0 0.00 0.00 0.00 67 1005.1
20260505050505 64 204 6.0 12.0 0.00 0.00 0.00 67 1005.3
20260505041516 63 178 3.0 8.0 0.00 0.00 0.00 67 1005.6
20260505041004 63 188 2.0 8.0 0.00 0.00 0.00 67 1005.6
20260505040506 63 190 3.0 8.0 0.00 0.00 0.00 66 1005.7
20260505040028 64 187 3.0 12.0 0.00 0.00 0.00 66 1005.7
20260505035505 64 197 4.0 12.0 0.00 0.00 0.00 65 1005.7
20260505035004 64 181 3.0 7.0 0.00 0.00 0.00 65 1005.7
20260505034516 64 130 3.0 8.0 0.00 0.00 0.00 65 1005.7
20260505034002 64 107 3.0 8.0 0.00 0.00 0.00 64 1005.7
20260505033011 64 184 3.0 7.0 0.00 0.00 0.00 64 1005.8
20260505031515 65 194 2.0 7.0 0.00 0.00 0.00 63 1005.7
20260505031007 65 163 3.0 7.0 0.00 0.00 0.00 63 1005.8
20260505030506 65 215 2.0 7.0 0.00 0.00 0.00 63 1005.8
20260505030024 65 127 3.0 6.0 0.00 0.00 0.00 63 1005.8
20260505025507 65 193 2.0 6.0 0.00 0.00 0.00 63 1005.7
20260505025006 65 128 2.0 6.0 0.00 0.00 0.00 63 1005.7
20260505024514 65 153 2.0 8.0 0.00 0.00 0.00 64 1005.6
20260505024004 65 196 2.0 9.0 0.00 0.00 0.00 64 1005.5
20260505023504 65 171 3.0 9.0 0.00 0.00 0.00 64 1005.5
20260505023009 65 170 3.0 7.0 0.00 0.00 0.00 64 1005.5
20260505022002 66 177 3.0 7.0 0.00 0.00 0.00 64 1005.5
20260505021515 66 150 3.0 9.0 0.00 0.00 0.00 64 1005.6
20260505015506 66 121 2.0 9.0 0.00 0.00 0.00 63 1005.6
20260505015005 67 136 4.0 9.0 0.00 0.00 0.00 63 1005.6
20260505014514 66 136 4.0 8.0 0.00 0.00 0.00 63 1005.5
20260505014008 66 216 3.0 8.0 0.00 0.00 0.00 63 1005.5
20260505013508 66 182 3.0 10.0 0.00 0.00 0.00 63 1005.5
20260505013016 66 169 3.0 10.0 0.00 0.00 0.00 62 1005.4
20260505012504 66 190 2.0 10.0 0.00 0.00 0.00 63 1005.3
20260505012008 66 153 2.0 5.0 0.00 0.00 0.00 62 1005.3
20260505011511 67 169 2.0 10.0 0.00 0.00 0.00 62 1005.2
20260505010012 67 136 3.0 7.0 0.00 0.00 0.00 61 1005.0
20260505005006 67 184 1.0 6.0 0.00 0.00 0.00 61 1005.2
20260505004518 67 164 2.0 6.0 0.00 0.00 0.00 60 1005.2
20260505004009 67 194 1.0 6.0 0.00 0.00 0.00 60 1005.2
20260505003505 67 184 2.0 6.0 0.00 0.00 0.00 59 1005.2
20260505003006 68 163 2.0 8.0 0.00 0.00 0.00 58 1005.2
20260505001508 68 191 3.0 7.0 0.00 0.00 0.00 56 1005.2
20260505000503 69 155 4.0 8.0 0.00 0.00 0.00 56 1005.2
20260505000013 69 145 3.0 7.0 0.00 0.00 0.00 56 1005.2
20260504235507 69 146 4.0 10.0 0.00 0.00 0.00 55 1005.2
20260504234515 70 200 4.0 14.0 0.00 0.00 0.00 55 1005.3
20260504234008 70 205 4.0 10.0 0.00 0.00 0.00 56 1005.4
20260504233507 70 202 3.0 11.0 0.00 0.00 0.00 56 1005.5
20260504233019 70 185 4.0 11.0 0.00 0.00 0.00 56 1005.4
20260504232507 69 157 3.0 7.0 0.00 0.00 0.00 56 1005.4
20260504232003 69 163 4.0 7.0 0.00 0.00 0.00 56 1005.5
20260504231506 69 199 3.0 15.0 0.00 0.00 0.00 56 1005.6
20260504231004 69 149 3.0 15.0 0.00 0.00 0.00 56 1005.5
20260504230012 70 213 4.0 10.0 0.00 0.00 0.00 55 1005.6
20260504225008 69 219 5.0 11.0 0.00 0.00 0.00 55 1005.7
20260504224518 69 182 5.0 16.0 0.00 0.00 0.00 56 1005.7
20260504224007 69 165 4.0 16.0 0.00 0.00 0.00 56 1005.8
20260504223506 69 148 7.0 15.0 0.00 0.00 0.00 55 1005.8
20260504223021 69 140 7.0 15.0 0.00 0.00 0.00 55 1005.8
20260504221003 70 161 6.0 12.0 0.00 0.00 0.00 53 1006.0
20260504220504 70 184 6.0 17.0 0.00 0.00 0.00 52 1005.9
20260504220010 70 184 6.0 17.0 0.00 0.00 0.00 52 1005.9
20260504215506 71 191 7.0 17.0 0.00 0.00 0.00 1005.9
20260504214514 72 213 7.0 11.0 0.00 0.00 0.00 49 1005.7
20260504213506 72 221 5.0 18.0 0.00 0.00 0.00 49 1005.9
20260504213020 72 176 7.0 18.0 0.00 0.00 0.00 49 1005.8
20260504210508 73 182 7.0 16.0 0.00 0.00 0.00 47 1006.1
20260504210008 73 98 5.0 19.0 0.00 0.00 0.00 49 1006.0
20260504205506 72 190 9.0 22.0 0.00 0.00 0.00 49 1005.9
20260504204514 71 63 4.0 20.0 0.00 0.00 0.00 51 1006.0
20260504203508 72 193 7.0 17.0 0.00 0.00 0.00 53 1006.1
20260504203018 72 199 9.0 22.0 0.00 0.00 0.00 51 1006.0
20260504200509 71 184 7.0 17.0 0.00 0.00 0.00 53 1006.5
20260504200036 72 204 5.0 18.0 0.00 0.00 0.00 53 1006.5
20260504194512 72 117 7.0 20.0 0.00 0.00 0.00 52 1006.9
20260504194009 72 189 8.0 24.0 0.00 0.00 0.00 52 1006.9
20260504193505 72 148 5.0 33.0 0.00 0.00 0.00 50 1006.8
20260504193016 72 203 11.0 30.0 0.00 0.00 0.00 50 1006.9
20260504192007 71 176 9.0 20.0 0.00 0.00 0.00 51 1006.6
20260504191536 72 210 10.0 19.0 0.00 0.00 0.00 50 1006.8
20260504191009 73 159 6.0 17.0 0.00 0.00 0.00 51 1006.8
20260504190024 74 167 8.0 16.0 0.00 0.00 0.00 50 1006.6
20260504185511 74 169 5.0 15.0 0.00 0.00 0.00 51 1006.5
20260504183504 73 159 6.0 14.0 0.00 0.00 0.00 51 1006.7
20260504183033 73 196 7.0 14.0 0.00 0.00 0.00 51 1006.6
20260504182007 73 207 4.0 21.0 0.00 0.00 0.00 52 1006.7
20260504181523 72 194 7.0 21.0 0.00 0.00 0.00 52 1006.6
20260504181009 72 209 6.0 13.0 0.00 0.00 0.00 55 1006.6
20260504180511 72 199 5.0 14.0 0.00 0.00 0.00 55 1006.8
20260504180025 71 297 3.0 18.0 0.00 0.00 0.00 55 1006.7
20260504175008 72 200 5.0 16.0 0.00 0.00 0.00 53 1006.8
20260504174525 72 236 5.0 21.0 0.00 0.00 0.00 55 1006.9
20260504172509 70 135 5.0 12.0 0.00 0.00 0.00 53 1007.1
20260504172004 70 223 5.0 12.0 0.00 0.00 0.00 55 1007.1
20260504171518 70 185 7.0 12.0 0.00 0.00 0.00 56 1007.2
20260504171015 70 306 3.0 15.0 0.00 0.00 0.00 55 1007.2
20260504170510 69 200 6.0 15.0 0.00 0.00 0.00 56 1007.3
20260504151006 63 213 6.0 14.0 0.00 0.00 0.00 60 1008.3
20260504150511 63 225 7.0 14.0 0.00 0.00 0.00 62 1008.5
20260504141006 60 206 7.0 12.0 0.00 0.00 0.00 61 1008.5
20260504140504 60 222 5.0 12.0 0.00 0.00 0.00 63 1008.5
20260504130507 57 170 4.0 8.0 0.00 0.00 0.00 65 1009.1